FALCON 9 R/B, 60424

Orbit data source: Space-Track

FALCON 9 R/B, 60424 is space debris in HEO originally from a launch on Mon, 12 Aug 2024 UTC launched from the Air Force Western Test Range (AFWTR). Debris objects in space refer to the collection of defunct objects orbiting the Earth. Examples of debris include non-operational satellites, rocket bodies, and fragments generated from explosions, collisions, or faulty payload assembly.

Loading next visibility...
Identifier
60424, 2024-143C
Orbit
HEO
Last TLE update
23 hours ago
Origin
Manufacturer
SpaceX
Mission
Spacecraft
Bus & Motor
F9ST2, Unknown motor
Mass
~3,000 kg wet, ~3,000 kg dry
Launch date (UTC)
2024-08-12 (11 months ago)
Launch vehicle
Unknown
Launch site
Air Force Western Test Range (AFWTR)
Object type
Payload
Rocket body
Debris
Shape & HBR
Cyl, 15.53 m
Radar Cross Section
39.980 m², Large (>1 m²)

Expand to show TLE details & history

TLE from 23 hours ago
0 FALCON 9 R/B
1 60424U 24143C   25186.03990742  .00002943  00000-0  60859-3 0  9995
2 60424  62.3413 209.8660 4730839 285.9562  28.3050  6.04543489 19695
Epoch: 2025-07-05T00:57Z
TLE epoch observation values (Epoch: 2025-07-05T00:57:28.001Z)
Latitude
-0.0001°
Longitude
-87.77745°
Altitude
2,373.985 km
Speed
7.733 km/s
True Right ascension
13h 59m 29s
True Declination
0° 00' 00"
Sunlit
Object was in daylight at epoch
Visualization orbit readout
Latitude
-6.35281°
Longitude
94.90123°
Altitude
4,289.374 km
Speed
6.59 km/s
Apparent Right ascension
01h 28m 05s
Apparent Declination
-19° 22' 12"
Sunlit
Object is in daylight
Visualization observer readout
Local Sidereal Time
11:54:54
Azimuth
308.953° NW
Elevation
-61.331°
Doppler factor
1
Orbital elements
Apogee altitude
12,370.975 km
Perigee altitude
328.344 km
Semi-major axis
12,727.797 km
Eccentricity
0.47308
Inclination
62.3413°
RAAN
209.866°
Arg. of periapsis
285.9562°
True anomaly
Unknown
Mean anomaly
28.305°
Eccentric anomaly
Unknown
Mean motion
1.51152 °/min
Orbital period
238.17 mins
BSTAR
0.00060859
Loading maneuver chart data...
Loading SW <> Apogee altitude chart data...
Loading historical data...
Loading historical data...
Loading historical data...
Loading historical data...
Loading historical data...
Loading historical data...
Loading historical data...
Other satellites on launch #143 in the year 2024 (2024-08-12 UTC)

FALCON 9 R/B Visibility forecast

Observer location: undefined°, undefined°

Span
Click to sort rows by Start time (UTC) header in descending order
Start Az.
Max El. time (UTC)
Max El. Az.
Max El.
End time (UTC)
End Az.
80 mins2025-07-06 00:50:28.060Z141.433° SSE2025-07-06 01:09:28.060Z81.671° E31.789°2025-07-06 02:10:28.060Z32.676° NE
136 mins2025-07-06 04:52:28.060Z241.956° WSW2025-07-06 05:21:28.060Z324.555° NNW42.662°2025-07-06 07:08:28.060Z63.63° ENE
151 mins2025-07-06 09:16:28.060Z304.928° NW2025-07-06 10:53:28.060Z50.295° ENE43.671°2025-07-06 11:47:28.060Z134.948° SE
116 mins2025-07-06 13:50:28.060Z326.862° NNW2025-07-06 15:05:28.060Z281.919° WNW33.3°2025-07-06 15:46:28.060Z220.617° SW
|